#timestamp,LO_Frequency,Hit 
1498345215.8,286046926.9,N
1498345235.6,286046928.9,N
1498345255.5,286046930.6,N
1498345275.3,286046929.6,N
1498345295.1,286046932.4,N
1498345315.9,286046933.5,N
1498345335.7,286046933.9,N
1498345355.5,286046931.0,N
1498345375.4,286046929.4,N
1498345395.2,286046929.7,N
1498345415.0,286046929.5,N
1498345415.9,286046929.5,N
1498345435.8,286046933.2,N
1498345455.6,286046934.5,N
1498345475.4,286046934.1,N
1498345495.2,286046935.8,N
1498345515.1,286046938.1,N
1498345516.0,286046938.1,N
1498345535.8,286046937.8,N
1498345555.6,286046938.7,N
1498345575.5,286046938.5,N
1498345595.3,286046936.8,N
1498345615.1,286046934.8,N
1498345635.9,286046933.2,N
1498345655.7,286046934.9,N
1498345675.5,286046932.8,N
1498345695.4,286046931.9,N
1498345715.2,286046929.9,N
1498345735.0,286046931.9,N
1498345735.9,286046931.9,N
1498345755.8,286046926.1,N
1498345775.6,286046926.9,N
1498345795.4,286046926.6,N
1498345815.2,286046926.8,N
1498345835.1,286046927.7,N
1498345836.0,286046927.7,N
1498345855.8,286046930.1,N
1498345875.6,286046931.9,N
1498345895.5,286046931.5,N
1498345915.3,286046932.7,N
1498345935.1,286046935.5,N
1498345955.9,286046937.2,N
1498345975.7,286046937.0,N
1498345995.5,286046937.0,N
1498346015.4,286046934.3,N
1498346035.2,286046932.9,N
1498346055.0,286046933.0,N
1498346055.9,286046933.0,N
1498346075.8,286046935.5,N
1498346095.6,286046935.0,N
1498346115.4,286046935.2,N
1498346135.2,286046938.7,N
1498346155.1,286046938.2,N
1498346156.0,286046938.2,N
1498346175.8,286046934.2,N
1498346195.6,286046935.4,N
1498346215.5,286046932.7,N
1498346235.3,286046932.8,N
1498346255.1,286046931.1,N
1498346275.9,286046932.3,N
1498346295.7,286046929.9,N
1498346315.5,286046931.9,N
1498346335.4,286046935.5,N
1498346355.2,286046933.5,N
1498346375.0,286046934.2,N
1498346375.9,286046934.2,N
1498346395.8,286046938.7,N
1498346415.6,286046940.7,N
1498346435.4,286046942.5,N
1498346455.2,286046946.2,N
1498346475.1,286046946.7,N
1498346476.0,286046946.7,N
1498346495.8,286046945.8,N
1498346515.6,286046947.6,N
1498346535.5,286046947.3,N
1498346555.3,286046947.1,N
1498346575.1,286046947.8,N
1498346595.9,286046946.1,N
1498346615.7,286046948.3,N
1498346635.5,286046945.4,N
1498346655.4,286046949.8,N
1498346675.2,286046953.0,N
1498346695.0,286046952.3,N
1498346695.9,286046952.3,N
1498346715.8,286046953.5,N
1498346735.6,286046953.4,N
1498346755.4,286046953.4,N
1498346775.2,286046953.7,N
1498346795.1,286046952.7,N
1498346796.0,286046952.7,N
1498346815.8,286046953.1,N
1498346835.6,286046951.0,N
1498346855.5,286046951.6,N
1498346875.3,286046949.6,N
1498346895.1,286046949.3,N
1498346915.9,286046947.0,N
1498346935.7,286046946.9,N
1498346955.5,286046951.5,N
1498346975.4,286046952.4,N
1498346995.2,286046955.8,N
1498347015.0,286046957.6,N
1498347015.9,286046957.6,N
1498347035.8,286046959.6,N
1498347055.6,286046959.1,N
1498347075.4,286046957.0,N
1498347095.3,286046957.2,N
1498347115.1,286046955.3,N
1498347116.0,286046955.3,N
1498347135.8,286046955.1,N
1498347155.7,286046955.5,N
1498347175.5,286046957.9,N
1498347195.3,286046956.7,N
1498347215.1,286046957.9,N
1498347235.9,286046957.5,N
1498347255.7,286046956.4,N
1498347275.5,286046954.2,N
1498347295.4,286046956.2,N
1498347315.2,286046953.3,N
1498347335.0,286046953.4,N
1498347335.9,286046953.4,N
1498347355.8,286046953.6,N
1498347375.6,286046952.0,N
1498347395.4,286046954.5,N
1498347415.3,286046954.6,N
1498347435.1,286046951.9,N
1498347436.0,286046951.9,N
1498347455.8,286046952.8,N
1498347475.7,286046950.8,N
1498347495.5,286046951.4,N
1498347515.3,286046950.5,N
1498347535.1,286046952.1,N
1498347555.9,286046953.0,N
1498347575.7,286046950.9,N
1498347595.5,286046947.7,N
1498347615.4,286046947.4,N
1498347635.2,286046951.0,N
1498347655.0,286046951.5,N
1498347655.9,286046951.5,N
1498347675.8,286046953.0,N
1498347695.6,286046952.8,N
1498347715.4,286046952.1,N
1498347735.3,286046950.5,N
1498347755.1,286046951.9,N
1498347756.0,286046951.9,N
1498347775.8,286046954.1,N
1498347795.7,286046953.7,N
1498347815.5,286046953.5,N
1498347835.3,286046954.2,N
1498347855.1,286046954.7,N
1498347875.9,286046954.7,N
1498347895.7,286046953.3,N
1498347915.5,286046955.5,N
1498347935.4,286046957.8,N
1498347955.2,286046957.2,N
1498347975.0,286046958.9,N
1498347975.9,286046958.9,N
1498347995.8,286046958.7,N
1498348015.6,286046959.3,N
1498348035.4,286046958.7,N
1498348055.3,286046959.2,N
1498348075.1,286046957.6,N
1498348076.0,286046957.6,N
1498348095.8,286046956.7,N
1498348115.7,286046958.7,N
1498348135.5,286046959.8,N
1498348155.3,286046963.3,N
1498348175.1,286046965.6,N
1498348195.9,286046963.4,N
1498348215.7,286046961.4,N
1498348235.5,286046959.7,N
1498348255.4,286046960.9,N
1498348275.2,286046960.9,N
1498348295.0,286046958.2,N
1498348295.9,286046958.2,N
1498348315.8,286046958.8,N
1498348335.6,286046959.3,N
1498348355.4,286046957.1,N
1498348375.3,286046958.9,N
1498348395.1,286046958.6,N
1498348396.0,286046958.6,N
1498348415.8,286046962.0,N
1498348435.7,286046962.2,N
1498348455.5,286046961.7,N
1498348475.3,286046961.8,N
1498348495.2,286046960.5,N
1498348515.9,286046958.7,N
1498348535.7,286046960.0,N
1498348555.5,286046962.8,N
1498348575.4,286046960.5,N
1498348595.2,286046959.5,N
1498348615.0,286046960.7,N
1498348615.9,286046960.7,N
1498348635.8,286046962.1,N
1498348655.6,286046962.3,N
1498348675.4,286046963.5,N
1498348695.3,286046966.0,N
1498348715.1,286046963.0,N
1498348716.0,286046963.0,N
1498348735.8,286046965.9,N
1498348755.7,286046960.2,N
1498348775.5,286046960.1,N
1498348795.3,286046958.2,N
